Orbital Elements at Epoch 2459000.5 (2020-May-31.0) TDB
Reference: JPL 38 (heliocentric ecliptic J2000)
Element | Value | Uncertainty (1-sigma) | Units |
e | .153796874218923 | 2.6647e-08 | |
a | 2.567464052301219 | 7.8939e-09 | au |
q | 2.172596106387842 | 6.9259e-08 | au |
i | 7.972892919235585 | 3.9034e-06 | deg |
node | 300.8928872587806 | 2.4426e-05 | deg |
peri | 321.2779968547188 | 2.8605e-05 | deg |
M | 289.3918108208393 | 1.6324e-05 | deg |
tp | 2459295.218607994216 (2021-Mar-21.71860799) | 6.8612e-05 | TDB |
period | 1502.640134400042 4.11 | 6.93e-06 1.897e-08 | d yr |
n | .2395783206893624 | 1.1049e-09 | deg/d |
Q | 2.962331998214595 | 9.108e-09 | au |
|
| | Orbit Determination Parameters
Additional Information
|